Change the Weather History Date:

Thursday, January 31, 2013

  Actual Average Record
Temperature  
Mean Temperature -3 °F -  
Max Temperature 3 °F 24 °F 46 °F (1989)
Min Temperature -9 °F 3 °F -28 °F (1985)
Degree Days  
Heating Degree Days 68    
Moisture  
Dew Point -10 °F    
Average Humidity 74    
Maximum Humidity 85    
Minimum Humidity 66    
Precipitation  
Precipitation 0.00 in - - ()
Sea Level Pressure  
Sea Level Pressure 30.04 in    
Wind  
Wind Speed 16 mph (WNW)    
Max Wind Speed 22 mph    
Max Gust Speed 32 mph    
Visibility 8 miles    
Events      
Averages and records for this station are not official NWS values.
T = Trace of Precipitation, MM = Missing Value Source: NWS Daily Summary

Daily Weather History Graph

Daily Weather History Graph

Search for Another Location

Airport or City:

Trip Planner

Search our weather history database for the weather conditions in past years. The results will help you decide how hot, cold, wet, or windy it might be!

Date:

Astronomy

Jan. 31, 2013 Rise Set
Actual Time 7:38 AM CST 5:24 PM CST
Civil Twilight 7:07 AM CST 5:56 PM CST
Nautical Twilight 6:32 AM CST 6:31 PM CST
Astronomical Twilight 5:57 AM CST 7:05 PM CST
Moon 10:45 PM CST (1/31) 9:23 AM CST (1/31)
Length of Visible Light 10h 48m
Length of Day
9h 45m
Waning Gibbous, 79% of the Moon is Illuminated
Jan 31
Waning Gibbous
Feb 3
Last Quarter
Feb 10
New
Feb 17
First Quarter
Feb 25
Full

Hourly Weather History & Observations

Time (CST) Temp. Windchill Dew Point Humidity Pressure Visibility Wind Dir Wind Speed Gust Speed Precip Events Conditions
12:13 AM 3.2 °F -14.6 °F -0.4 °F 85% 29.79 in 10.0 mi WNW 13.8 mph 20.7 mph N/A   Overcast
12:32 AM 3.2 °F -15.9 °F -0.4 °F 85% 29.79 in 10.0 mi WNW 16.1 mph 21.9 mph N/A   Overcast
12:53 AM 3.2 °F -15.3 °F -0.4 °F 85% 29.80 in 10.0 mi WNW 15.0 mph 20.7 mph N/A   Overcast
1:13 AM 3.2 °F -14.6 °F -2.2 °F 78% 29.80 in 10.0 mi WNW 13.8 mph 24.2 mph N/A   Overcast
1:32 AM 1.4 °F -18.2 °F -2.2 °F 85% 29.81 in 10.0 mi WNW 16.1 mph 23.0 mph N/A   Overcast
1:53 AM 1.4 °F -16.9 °F -2.2 °F 85% 29.81 in 10.0 mi WNW 13.8 mph 27.6 mph N/A   Overcast
2:13 AM 1.4 °F -16.9 °F -4.0 °F 78% 29.82 in 10.0 mi WNW 13.8 mph 24.2 mph N/A   Overcast
2:32 AM 1.4 °F -18.2 °F -4.0 °F 78% 29.83 in 10.0 mi WNW 16.1 mph 23.0 mph N/A   Overcast
2:53 AM 1.4 °F -18.2 °F -4.0 °F 78% 29.83 in 10.0 mi WNW 16.1 mph 21.9 mph N/A   Overcast
3:13 AM 1.4 °F -18.2 °F -4.0 °F 78% 29.83 in 7.0 mi WNW 16.1 mph 20.7 mph N/A   Overcast
3:32 AM -0.4 °F -19.9 °F -5.8 °F 78% 29.83 in 7.0 mi WNW 15.0 mph - N/A   Overcast
3:53 AM -0.4 °F -21.2 °F -5.8 °F 78% 29.84 in 7.0 mi WNW 17.3 mph 24.2 mph N/A   Overcast
4:13 AM -0.4 °F -19.9 °F -5.8 °F 78% 29.85 in 5.0 mi WNW 15.0 mph 23.0 mph N/A   Haze
4:32 AM -0.4 °F -20.5 °F -5.8 °F 78% 29.85 in 5.0 mi WNW 16.1 mph 23.0 mph N/A   Haze
4:53 AM -0.4 °F -21.7 °F -5.8 °F 78% 29.86 in 5.0 mi WNW 18.4 mph 24.2 mph N/A   Haze
5:13 AM -0.4 °F -21.7 °F -5.8 °F 78% 29.87 in 7.0 mi NW 18.4 mph 25.3 mph N/A   Overcast
5:33 AM -0.4 °F -21.7 °F -5.8 °F 78% 29.88 in 3.0 mi WNW 18.4 mph 24.2 mph N/A   Haze
5:53 AM -2.2 °F -24.1 °F -7.6 °F 78% 29.88 in 4.0 mi WNW 18.4 mph 26.5 mph N/A   Haze
6:13 AM -2.2 °F -21.5 °F -7.6 °F 78% 29.90 in 5.0 mi WNW 13.8 mph 23.0 mph N/A   Haze
6:32 AM -2.2 °F -22.9 °F -7.6 °F 78% 29.90 in 10.0 mi WNW 16.1 mph 24.2 mph N/A   Overcast
6:53 AM -4.0 °F -26.4 °F -9.4 °F 78% 29.92 in 7.0 mi WNW 18.4 mph 26.5 mph N/A   Overcast
7:13 AM -5.8 °F -26.8 °F -9.4 °F 84% 29.93 in 5.0 mi NW 15.0 mph 26.5 mph N/A   Haze
7:32 AM -5.8 °F -30.5 °F -11.2 °F 77% 29.94 in 5.0 mi NW 21.9 mph 28.8 mph N/A   Haze
7:53 AM -5.8 °F -27.5 °F -11.2 °F 77% 29.95 in 4.0 mi WNW 16.1 mph 25.3 mph N/A   Haze
8:13 AM -5.8 °F -28.2 °F -11.2 °F 77% 29.96 in 4.0 mi WNW 17.3 mph 26.5 mph N/A   Haze
8:32 AM -5.8 °F -27.5 °F -11.2 °F 77% 29.97 in 4.0 mi WNW 16.1 mph 25.3 mph N/A   Haze
8:53 AM -5.8 °F -29.4 °F -11.2 °F 77% 29.98 in 4.0 mi WNW 19.6 mph 26.5 mph N/A   Haze
9:18 AM -5.8 °F -28.8 °F -11.2 °F 77% 30.00 in 7.0 mi WNW 18.4 mph 25.3 mph N/A   Mostly Cloudy
9:33 AM -5.8 °F -28.2 °F -11.2 °F 77% 30.01 in 5.0 mi WNW 17.3 mph 26.5 mph N/A   Haze
9:53 AM -5.8 °F -28.2 °F -11.2 °F 77% 30.02 in 4.0 mi WNW 17.3 mph 25.3 mph N/A   Haze
10:13 AM -4.0 °F -25.2 °F -11.2 °F 71% 30.03 in 5.0 mi NW 16.1 mph 27.6 mph N/A   Haze
10:33 AM -4.0 °F -27.0 °F -11.2 °F 71% 30.04 in 4.0 mi NW 19.6 mph 27.6 mph N/A   Haze
10:53 AM -4.0 °F -28.1 °F -11.2 °F 71% 30.05 in 7.0 mi NW 21.9 mph 31.1 mph N/A   Mostly Cloudy
11:13 AM -2.2 °F -22.9 °F -9.4 °F 71% 30.05 in 5.0 mi WNW 16.1 mph 29.9 mph N/A   Haze
11:33 AM -2.2 °F -24.7 °F -9.4 °F 71% 30.06 in 4.0 mi NW 19.6 mph 26.5 mph N/A   Haze
11:53 AM -2.2 °F -24.1 °F -9.4 °F 71% 30.06 in 7.0 mi NW 18.4 mph 31.1 mph N/A   Clear
12:13 PM -0.4 °F -23.3 °F -9.4 °F 66% 30.07 in 7.0 mi NW 21.9 mph 27.6 mph N/A   Clear
12:33 PM -0.4 °F -22.3 °F -9.4 °F 66% 30.07 in 5.0 mi NW 19.6 mph 27.6 mph N/A   Haze
12:53 PM -0.4 °F -22.3 °F -9.4 °F 66% 30.08 in 10.0 mi NW 19.6 mph 24.2 mph N/A   Clear
1:13 PM -0.4 °F -21.2 °F -9.4 °F 66% 30.09 in 10.0 mi WNW 17.3 mph 25.3 mph N/A   Clear
1:33 PM -0.4 °F -23.3 °F -9.4 °F 66% 30.09 in 10.0 mi WNW 21.9 mph 25.3 mph N/A   Clear
1:53 PM -0.4 °F -21.7 °F -9.4 °F 66% 30.10 in 10.0 mi WNW 18.4 mph 25.3 mph N/A   Clear
2:13 PM -0.4 °F -19.9 °F -9.4 °F 66% 30.10 in 10.0 mi NW 15.0 mph 25.3 mph N/A   Clear
2:33 PM -0.4 °F -22.3 °F -9.4 °F 66% 30.11 in 10.0 mi NW 19.6 mph 28.8 mph N/A   Clear
2:53 PM -0.4 °F -21.7 °F -9.4 °F 66% 30.12 in 10.0 mi NW 18.4 mph 27.6 mph N/A   Clear
3:13 PM -2.2 °F -22.9 °F -11.2 °F 66% 30.14 in 10.0 mi WNW 16.1 mph 26.5 mph N/A   Clear
3:33 PM -2.2 °F -25.2 °F -11.2 °F 66% 30.14 in 10.0 mi WNW 20.7 mph 31.1 mph N/A   Clear
3:53 PM -2.2 °F -25.7 °F -11.2 °F 66% 30.15 in 10.0 mi NW 21.9 mph 31.1 mph N/A   Clear
4:13 PM -2.2 °F -24.1 °F -11.2 °F 66% 30.16 in 10.0 mi NW 18.4 mph 32.2 mph N/A   Clear
4:33 PM -2.2 °F -24.1 °F -11.2 °F 66% 30.17 in 10.0 mi NW 18.4 mph 25.3 mph N/A   Clear
4:53 PM -5.8 °F -27.5 °F -13.0 °F 71% 30.18 in 10.0 mi WNW 16.1 mph 28.8 mph N/A   Clear
5:13 PM -5.8 °F -28.8 °F -13.0 °F 71% 30.19 in 10.0 mi WNW 18.4 mph 27.6 mph N/A   Clear
5:33 PM -5.8 °F -28.2 °F -13.0 °F 71% 30.19 in 10.0 mi WNW 17.3 mph 24.2 mph N/A   Clear
6:13 PM -7.6 °F -31.1 °F -14.8 °F 71% 30.20 in 10.0 mi WNW 18.4 mph 24.2 mph N/A   Clear
6:33 PM -7.6 °F -29.8 °F -14.8 °F 71% 30.21 in 10.0 mi WNW 16.1 mph 25.3 mph N/A   Clear
6:53 PM -7.6 °F -28.3 °F -14.8 °F 71% 30.21 in 10.0 mi WNW 13.8 mph 20.7 mph N/A   Clear
7:13 PM -7.6 °F -29.1 °F -14.8 °F 71% 30.22 in 10.0 mi WNW 15.0 mph 23.0 mph N/A   Clear
7:33 PM -7.6 °F -28.3 °F -14.8 °F 71% 30.22 in 10.0 mi WNW 13.8 mph 21.9 mph N/A   Clear
8:13 PM -7.6 °F -26.6 °F -14.8 °F 71% 30.23 in 10.0 mi WNW 11.5 mph 19.6 mph N/A   Clear
8:33 PM -7.6 °F -29.1 °F -14.8 °F 71% 30.24 in 10.0 mi WNW 15.0 mph 20.7 mph N/A   Clear
8:53 PM -7.6 °F -29.1 °F -14.8 °F 71% 30.24 in 10.0 mi WNW 15.0 mph 23.0 mph N/A   Clear
9:13 PM -7.6 °F -27.5 °F -14.8 °F 71% 30.25 in 10.0 mi WNW 12.7 mph 18.4 mph N/A   Clear
9:33 PM -7.6 °F -29.1 °F -14.8 °F 71% 30.25 in 10.0 mi WNW 15.0 mph - N/A   Clear
9:53 PM -9.4 °F -29.8 °F -14.8 °F 77% 30.26 in 10.0 mi WNW 12.7 mph 18.4 mph N/A   Clear
10:13 PM -9.4 °F -29.8 °F -14.8 °F 77% 30.26 in 10.0 mi WNW 12.7 mph - N/A   Clear
10:33 PM -9.4 °F -28.9 °F -16.6 °F 71% 30.26 in 10.0 mi WNW 11.5 mph - N/A   Clear
11:13 PM -9.4 °F -28.9 °F -16.6 °F 71% 30.26 in 10.0 mi WNW 11.5 mph 18.4 mph N/A   Clear
11:33 PM -9.4 °F -28.9 °F -16.6 °F 71% 30.26 in 10.0 mi WNW 11.5 mph 17.3 mph N/A   Clear
11:53 PM -9.4 °F -30.6 °F -16.6 °F 71% 30.26 in 10.0 mi WNW 13.8 mph - N/A   Clear